Regional Weather Roundup
Issued by NWS Cleveland, OH

Home | Current Version | Previous Version | Text Only | Print | Product List | Glossary Off
Versions: 1 2 3 4 5 6 7 8 9 10 11 12 13 14 15 16 17 18 19 20 21 22 23 24 25 26 27 28 29 30 31 32 33 34 35 36 37 38 39 40 41 42 43 44 45 46 47 48 49 50

000
ASUS41 KCLE 312000
RWRCLE
OHIO REGIONAL WEATHER ROUNDUP
NATIONAL WEATHER SERVICE WILMINGTON, OH
400 PM EDT MON AUG 31 2015

NOTE: "FAIR" INDICATES FEW OR NO CLOUDS BELOW 12,000 FEET WITH NO
SIGNIFICANT WEATHER AND/OR OBSTRUCTIONS TO VISIBILITY.

OHZ001>008-015>018-024>027-034-035-043-044-312100-
   NORTHWEST OHIO

CITY           SKY/WX    TMP DP  RH WIND       PRES   REMARKS
DEFIANCE       MOSUNNY   86  67  52 SW8       30.06F
FINDLAY        MOSUNNY   86  67  52 SW8       30.06F
TOLEDO EXPRESS MOSUNNY   86  67  52 W10       30.05F
TOLEDO EXEC    MOSUNNY   86  66  51 SW8       30.06F
LIMA           MOSUNNY   85  66  53 CALM      30.07F
$$

OHZ009>014-019>023-028>033-038-089-312100-
   NORTHEAST OHIO

CITY           SKY/WX    TMP DP  RH WIND       PRES   REMARKS
CLE-HOPKINS    MOSUNNY   85  67  54 W8        30.08F
CLE-LAKEFRONT  SUNNY     80  69  69 N6        30.06F
CUY CO. ARPT   SUNNY     82  70  65 NW14      30.09F
LORAIN-ELYRIA  PTSUNNY   84  68  58 CALM      30.07F
ASHTABULA      SUNNY     82  70  66 NW7       30.08F
AKRON-CANTON   PTSUNNY   86  65  49 SW8       30.08F
WOOSTER        NOT AVBL
MANSFIELD      MOSUNNY   85  66  53 NW6       30.09F
YOUNGSTOWN     MOSUNNY   86  65  49 W8        30.07F
$$

OHZ042-051>053-060>062-070>072-077>081-312100-
  SOUTHWEST OHIO

CITY           SKY/WX    TMP DP  RH WIND       PRES   REMARKS
CINC-COVINGTON MOSUNNY   85  65  51 SW6       30.09F
CINC-LUNKEN    PTSUNNY   85  68  56 SW8       30.08F
HAMILTON       MOSUNNY   87  67  51 VRB5      30.08F HX  90
DAYTON         NOT AVBL
WRIGHT-PAT AFB MOSUNNY   86  65  50 VRB5      30.07F
DAYTON GENERAL MOSUNNY   84  65  52 SW5       30.08F
WILMINGTON     MOSUNNY   82  68  62 S10       30.10F
$$

OHZ036-037-039>041-045>050-054>059-063>069-073>076-082>088-312100-
  CENTRAL AND SOUTHEAST OHIO

CITY           SKY/WX    TMP DP  RH WIND       PRES   REMARKS
COLUMBUS       PTSUNNY   85  67  54 SW3       30.07F
OSU AIRPORT    PTSUNNY   87  66  49 SW9       30.07F
BOLTON FIELD   MOSUNNY   84  70  61 CALM      30.08F
RICKENBACK AFB NOT AVBL
NEWARK         SUNNY     85  66  53 W6        30.07F
MARION         SUNNY     85  66  53 VRB6      30.08F
LANCASTER      PTSUNNY   81  67  62 W7        30.09S
ZANESVILLE     PTSUNNY   88  63  43 NW7       30.07
NEW PHILLY     MOSUNNY   88  65  46 W6        30.07F HX  90
$$


USA.gov is the U.S. government's official web portal to all federal, state and local government web resources and services.